 loc,          time,  dir,  spd,  gst,  vsb,  tmp,  dwp,   rh,  wcl,   hi,  alt,  cel,  pcp
KBWG,09/03/17 17:00,  270,    5,     , 10.0,   68,   45,   43,     ,     ,30.18,     ,     
KBWG,09/03/17 17:05,  250,    5,     , 10.0,   68,   45,   43,     ,     ,30.18,     ,     
KBWG,09/03/17 17:10,  250,    6,     , 10.0,   66,   45,   46,     ,     ,30.18,     ,     
KBWG,09/03/17 17:15,  260,    5,     , 10.0,   66,   45,   46,     ,     ,30.18,     ,     
KBWG,09/03/17 17:20,  260,    3,     , 10.0,   66,   45,   46,     ,     ,30.18,     ,     
KBWG,09/03/17 17:25,  250,    3,     , 10.0,   66,   45,   46,     ,     ,30.18,     ,     
KBWG,09/03/17 17:30,  240,    3,     , 10.0,   66,   45,   46,     ,     ,30.18,     ,     
KBWG,09/03/17 17:35,  240,    3,     , 10.0,   66,   45,   46,     ,     ,30.18,     ,     
KBWG,09/03/17 17:40,  240,    3,     , 10.0,   66,   43,   43,     ,     ,30.18,     ,     
KBWG,09/03/17 17:45,  240,    3,     , 10.0,   66,   45,   46,     ,     ,30.18,     ,     
KBWG,09/03/17 17:50,  240,    3,     , 10.0,   66,   43,   43,     ,     ,30.18,     ,     
KBWG,09/03/17 17:55,     ,    0,     , 10.0,   66,   43,   43,     ,     ,30.18,     ,     
KBWG,09/03/17 18:00,     ,    0,     , 10.0,   66,   43,   43,     ,     ,30.18,     ,     
KBWG,09/03/17 18:05,     ,    0,     , 10.0,   66,   43,   43,     ,     ,30.18,     ,     
KBWG,09/03/17 18:10,  230,    3,     , 10.0,   66,   43,   43,     ,     ,30.18,     ,     
KBWG,09/03/17 18:15,  230,    3,     , 10.0,   66,   45,   46,     ,     ,30.19,     ,     
KBWG,09/03/17 18:20,     ,    0,     , 10.0,   64,   45,   49,     ,     ,30.19,     ,     
KBWG,09/03/17 18:25,  240,    3,     , 10.0,   66,   45,   46,     ,     ,30.19,     ,     
KBWG,09/03/17 18:30,     ,    0,     ,  9.0,   64,   45,   49,     ,     ,30.19,     ,     
KBWG,09/03/17 18:35,  250,    3,     ,  8.0,   64,   45,   49,     ,     ,30.19,     ,     
KBWG,09/03/17 18:40,     ,    0,     ,  8.0,   63,   45,   52,     ,     ,30.19,     ,     
KBWG,09/03/17 18:45,     ,    0,     ,  8.0,   64,   45,   49,     ,     ,30.19,     ,     
KBWG,09/03/17 18:50,     ,    0,     ,  7.0,   64,   45,   49,     ,     ,30.19,     ,     
KBWG,09/03/17 18:55,     ,    0,     ,  6.0,   64,   45,   49,     ,     ,30.19,     ,     
KBWG,09/03/17 19:00,     ,    0,     ,  5.0,   63,   45,   52,     ,     ,30.19,     ,     
KBWG,09/03/17 19:05,     ,    0,     ,  5.0,   57,   45,   63,     ,     ,30.19,     ,     
KBWG,09/03/17 19:10,     ,    0,     ,  6.0,   57,   45,   63,     ,     ,30.19,     ,     
KBWG,09/03/17 19:15,     ,    0,     ,  8.0,   57,   45,   63,     ,     ,30.19,     ,     
KBWG,09/03/17 19:20,     ,    0,     ,  9.0,   57,   45,   63,     ,     ,30.19,     ,     
KBWG,09/03/17 19:25,     ,    0,     ,  9.0,   57,   45,   63,     ,     ,30.19,     ,     
KBWG,09/03/17 19:30,     ,    0,     ,  9.0,   57,   45,   63,     ,     , 30.2,     ,     
KBWG,09/03/17 19:35,     ,    0,     ,  9.0,   57,   45,   63,     ,     , 30.2,     ,     
KBWG,09/03/17 19:40,     ,    0,     ,  9.0,   55,   45,   67,     ,     , 30.2,     ,     
KBWG,09/03/17 19:45,     ,    0,     ,  9.0,   55,   45,   67,     ,     , 30.2,     ,     
KBWG,09/03/17 19:50,     ,    0,     ,  9.0,   55,   45,   67,     ,     , 30.2,     ,     
KBWG,09/03/17 19:55,     ,    0,     ,  9.0,   55,   45,   67,     ,     , 30.2,     ,     
KBWG,09/03/17 20:00,     ,    0,     ,  9.0,   54,   45,   71,     ,     , 30.2,     ,     
KBWG,09/03/17 20:05,     ,    0,     ,  9.0,   54,   45,   71,     ,     , 30.2,     ,     
KBWG,09/03/17 20:10,     ,    0,     ,  9.0,   54,   45,   71,     ,     , 30.2,     ,     
KBWG,09/03/17 20:15,     ,    0,     ,  9.0,   54,   45,   71,     ,     , 30.2,     ,     
KBWG,09/03/17 20:20,     ,    0,     ,  9.0,   54,   45,   71,     ,     , 30.2,     ,     
KBWG,09/03/17 20:25,     ,    0,     ,  9.0,   54,   45,   71,     ,     , 30.2,     ,     
KBWG,09/03/17 20:30,     ,    0,     ,  9.0,   54,   45,   71,     ,     , 30.2,     ,     
KBWG,09/03/17 20:35,     ,    0,     ,  9.0,   52,   45,   76,     ,     , 30.2,     ,     
KBWG,09/03/17 20:40,     ,    0,     ,  9.0,   52,   45,   76,     ,     , 30.2,     ,     
KBWG,09/03/17 20:45,     ,    0,     ,  9.0,   52,   45,   76,     ,     , 30.2,     ,     
KBWG,09/03/17 20:50,     ,    0,     ,  9.0,   54,   45,   71,     ,     , 30.2,     ,     
KBWG,09/03/17 20:55,     ,    0,     ,  9.0,   54,   45,   71,     ,     , 30.2,     ,     
KBWG,09/03/17 21:00,     ,    0,     ,  9.0,   52,   45,   76,     ,     , 30.2,     ,     
KBWG,09/03/17 21:05,     ,    0,     ,  9.0,   52,   45,   76,     ,     , 30.2,     ,     
KBWG,09/03/17 21:10,     ,    0,     ,  8.0,   52,   45,   76,     ,     , 30.2,     ,     
KBWG,09/03/17 21:15,     ,    0,     ,  8.0,   52,   45,   76,     ,     , 30.2,     ,     
KBWG,09/03/17 21:20,     ,    0,     ,  8.0,   52,   45,   76,     ,     ,30.19,     ,     
KBWG,09/03/17 21:25,     ,    0,     ,  8.0,   52,   45,   76,     ,     ,30.19,     ,     
KBWG,09/03/17 21:30,     ,    0,     ,  8.0,   52,   45,   76,     ,     ,30.19,     ,     
KBWG,09/03/17 21:35,     ,    0,     ,  8.0,   52,   45,   76,     ,     ,30.19,     ,     
KBWG,09/03/17 21:40,     ,    0,     ,  8.0,   52,   45,   76,     ,     ,30.19,     ,     
KBWG,09/03/17 21:45,     ,    0,     ,  8.0,   52,   45,   76,     ,     ,30.19,     ,     
KBWG,09/03/17 21:50,     ,    0,     ,  8.0,   52,   45,   76,     ,     ,30.19,     ,     
KBWG,09/03/17 21:55,     ,    0,     ,  8.0,   52,   45,   76,     ,     ,30.19,     ,     
KBWG,09/03/17 22:00,     ,    0,     ,  8.0,   50,   45,   82,     ,     ,30.19,     ,     
KBWG,09/03/17 22:05,     ,    0,     ,  8.0,   52,   45,   76,     ,     ,30.18,     ,     
KBWG,09/03/17 22:10,     ,    0,     ,  8.0,   52,   45,   76,     ,     ,30.18,     ,     
KBWG,09/03/17 22:15,     ,    0,     ,  8.0,   52,   45,   76,     ,     ,30.18,     ,     
KBWG,09/03/17 22:20,     ,    0,     ,  8.0,   52,   45,   76,     ,     ,30.18,     ,     
KBWG,09/03/17 22:25,     ,    0,     ,  8.0,   52,   45,   76,     ,     ,30.18,     ,     
KBWG,09/03/17 22:30,     ,    0,     ,  9.0,   52,   45,   76,     ,     ,30.18,     ,     
KBWG,09/03/17 22:35,     ,    0,     ,  9.0,   52,   45,   76,     ,     ,30.18,     ,     
KBWG,09/03/17 22:40,     ,    0,     ,  9.0,   52,   45,   76,     ,     ,30.18,     ,     
KBWG,09/03/17 22:45,     ,    0,     ,  8.0,   52,   45,   76,     ,     ,30.18,     ,     
KBWG,09/03/17 22:50,     ,    0,     ,  8.0,   52,   45,   76,     ,     ,30.18,     ,     
KBWG,09/03/17 22:55,     ,    0,     ,  9.0,   50,   45,   82,     ,     ,30.18,     ,     
KBWG,09/03/17 23:00,     ,    0,     ,  9.0,   50,   45,   82,     ,     ,30.18,     ,     
KBWG,09/03/17 23:05,     ,    0,     ,  8.0,   50,   45,   82,     ,     ,30.17,     ,     
KBWG,09/03/17 23:10,     ,    0,     ,  8.0,   50,   45,   82,     ,     ,30.17,     ,     
KBWG,09/03/17 23:15,     ,    0,     ,  8.0,   48,   45,   87,     ,     ,30.17,     ,     
KBWG,09/03/17 23:20,     ,    0,     ,  7.0,   48,   45,   87,     ,     ,30.17,     ,     
KBWG,09/03/17 23:25,     ,    0,     ,  7.0,   48,   45,   87,     ,     ,30.17,     ,     
KBWG,09/03/17 23:30,     ,    0,     ,  8.0,   52,   43,   71,     ,     ,30.17,     ,     
KBWG,09/03/17 23:35,     ,    0,     ,  9.0,   52,   43,   71,     ,     ,30.17,     ,     
KBWG,09/03/17 23:40,     ,    0,     ,  8.0,   48,   43,   81,     ,     ,30.17,     ,     
KBWG,09/03/17 23:45,     ,    0,     ,  7.0,   46,   43,   87,     ,     ,30.18,     ,     
KBWG,09/03/17 23:50,     ,    0,     ,  7.0,   50,   43,   76,     ,     ,30.18,     ,     
KBWG,09/03/17 23:55,     ,    0,     ,  7.0,   48,   43,   81,     ,     ,30.17,     ,     
KBWG,09/03/18 00:00,     ,    0,     ,  7.0,   48,   43,   81,     ,     ,30.18,     ,     
KBWG,09/03/18 00:05,     ,    0,     ,  7.0,   50,   43,   76,     ,     ,30.18,     ,     
KBWG,09/03/18 00:10,     ,    0,     ,  7.0,   48,   43,   81,     ,     ,30.18,     ,     
KBWG,09/03/18 00:15,     ,    0,     ,  7.0,   48,   43,   81,     ,     ,30.18,     ,     
KBWG,09/03/18 00:20,     ,    0,     ,  7.0,   48,   43,   81,     ,     ,30.18,     ,     
KBWG,09/03/18 00:25,     ,    0,     ,  7.0,   48,   43,   81,     ,     ,30.18,     ,     
KBWG,09/03/18 00:30,     ,    0,     ,  7.0,   50,   43,   76,     ,     ,30.18,     ,     
KBWG,09/03/18 00:35,     ,    0,     ,  7.0,   48,   43,   81,     ,     ,30.18,     ,     
KBWG,09/03/18 00:40,     ,    0,     ,  7.0,   46,   41,   81,     ,     ,30.18,     ,     
KBWG,09/03/18 00:45,     ,    0,     ,  6.0,   46,   43,   87,     ,     ,30.18,     ,     
KBWG,09/03/18 00:50,     ,    0,     ,  6.0,   46,   41,   81,     ,     ,30.18,     ,     
KBWG,09/03/18 00:55,     ,    0,     ,  6.0,   46,   43,   87,     ,     ,30.18,     ,     
KBWG,09/03/18 01:00,     ,    0,     ,  6.0,   46,   43,   87,     ,     ,30.18,     ,     
KBWG,09/03/18 01:05,     ,    0,     ,  6.0,   46,   43,   87,     ,     ,30.18,     ,     
KBWG,09/03/18 01:10,     ,    0,     ,  6.0,   45,   39,   81,     ,     ,30.18,     ,     
KBWG,09/03/18 01:15,     ,    0,     ,  6.0,   45,   39,   81,     ,     ,30.18,     ,     
KBWG,09/03/18 01:20,     ,    0,     ,  6.0,   45,   39,   81,     ,     ,30.18,     ,     
KBWG,09/03/18 01:25,     ,    0,     ,  5.0,   45,   39,   81,     ,     ,30.17,     ,     
KBWG,09/03/18 01:30,     ,    0,     ,  6.0,   45,   39,   81,     ,     ,30.17,     ,     
KBWG,09/03/18 01:35,  120,    3,     ,  6.0,   45,   39,   81,     ,     ,30.17,     ,     
KBWG,09/03/18 01:40,     ,    0,     ,  6.0,   45,   39,   81,     ,     ,30.17,     ,     
KBWG,09/03/18 01:45,  110,    3,     ,  6.0,   45,   39,   81,     ,     ,30.17,     ,     
KBWG,09/03/18 01:50,     ,    0,     ,  6.0,   45,   39,   81,     ,     ,30.17,     ,     
KBWG,09/03/18 01:55,     ,    0,     ,  5.0,   45,   39,   81,     ,     ,30.17,     ,     
KBWG,09/03/18 02:00,   90,    3,     ,  5.0,   45,   39,   81,     ,     ,30.17,     ,     
KBWG,09/03/18 02:05,     ,    0,     ,  5.0,   45,   39,   81,     ,     ,30.16,     ,     
KBWG,09/03/18 02:10,     ,    0,     ,  5.0,   45,   41,   87,     ,     ,30.16,     ,     
KBWG,09/03/18 02:15,     ,    0,     ,  4.0,   45,   41,   87,     ,     ,30.16,     ,     
KBWG,09/03/18 02:20,     ,    0,     ,  4.0,   45,   41,   87,     ,     ,30.16,     ,     
KBWG,09/03/18 02:25,     ,    0,     ,  4.0,   45,   41,   87,     ,     ,30.16,     ,     
KBWG,09/03/18 02:30,     ,    0,     ,  4.0,   45,   43,   93,     ,     ,30.16,     ,     
KBWG,09/03/18 02:35,     ,    0,     ,  5.0,   45,   43,   93,     ,     ,30.16,     ,     
KBWG,09/03/18 02:40,     ,    0,     ,  5.0,   45,   43,   93,     ,     ,30.16,     ,     
KBWG,09/03/18 02:45,     ,    0,     ,  5.0,   45,   43,   93,     ,     ,30.16,     ,     
KBWG,09/03/18 02:50,     ,    0,     ,  6.0,   45,   43,   93,     ,     ,30.16,     ,     
KBWG,09/03/18 02:55,     ,    0,     ,  5.0,   45,   43,   93,     ,     ,30.16,     ,     
KBWG,09/03/18 03:00,     ,    0,     ,  6.0,   45,   43,   93,     ,     ,30.16,     ,     
KBWG,09/03/18 03:05,     ,    0,     ,  6.0,   45,   41,   87,     ,     ,30.16,     ,     
KBWG,09/03/18 03:10,     ,    0,     ,  6.0,   46,   43,   87,     ,     ,30.16,     ,     
KBWG,09/03/18 03:15,     ,    0,     ,  6.0,   45,   41,   87,     ,     ,30.16,     ,     
KBWG,09/03/18 03:20,     ,    0,     ,  6.0,   43,   39,   87,     ,     ,30.16,     ,     
KBWG,09/03/18 03:25,     ,    0,     ,  5.0,   41,   37,   87,     ,     ,30.16,     ,     
KBWG,09/03/18 03:30,     ,    0,     ,  5.0,   43,   37,   81,     ,     ,30.17,     ,     
KBWG,09/03/18 03:35,     ,    0,     ,  4.0,   43,   37,   81,     ,     ,30.17,     ,     
KBWG,09/03/18 03:40,     ,    0,     ,  4.0,   43,   39,   87,     ,     ,30.17,     ,     
KBWG,09/03/18 03:45,     ,    0,     ,  4.0,   43,   39,   87,     ,     ,30.17,     ,     
KBWG,09/03/18 03:50,     ,    0,     ,  4.0,   43,   39,   87,     ,     ,30.17,     ,     
KBWG,09/03/18 03:55,     ,    0,     ,  5.0,   43,   39,   87,     ,     ,30.17,     ,     
KBWG,09/03/18 04:00,     ,    0,     ,  5.0,   43,   39,   87,     ,     ,30.17,     ,     
KBWG,09/03/18 04:05,     ,    0,     ,  5.0,   41,   37,   87,     ,     ,30.17,     ,     
KBWG,09/03/18 04:10,  110,    3,     ,  4.0,   41,   37,   87,     ,     ,30.17,     ,     
KBWG,09/03/18 04:15,     ,    0,     ,  4.0,   41,   37,   87,     ,     ,30.17,     ,     
KBWG,09/03/18 04:20,     ,    0,     ,  4.0,   41,   37,   87,     ,     ,30.17,     ,     
KBWG,09/03/18 04:25,     ,    0,     ,  5.0,   43,   39,   87,     ,     ,30.18,     ,     
KBWG,09/03/18 04:30,     ,    0,     ,  5.0,   43,   39,   87,     ,     ,30.18,     ,     
KBWG,09/03/18 04:35,     ,    0,     ,  4.0,   43,   39,   87,     ,     ,30.18,     ,     
KBWG,09/03/18 04:40,     ,    0,     ,  4.0,   43,   39,   87,     ,     ,30.18,     ,     
KBWG,09/03/18 04:45,     ,    0,     ,  4.0,   43,   39,   87,     ,     ,30.18,     ,     
KBWG,09/03/18 04:50,     ,    0,     ,  4.0,   43,   39,   87,     ,     ,30.18,     ,     
KBWG,09/03/18 04:55,     ,    0,     ,  4.0,   43,   39,   87,     ,     ,30.18,     ,     
KBWG,09/03/18 05:00,     ,    0,     ,  4.0,   43,   39,   87,     ,     ,30.18,     ,     
KBWG,09/03/18 05:05,     ,    0,     ,  4.0,   43,   37,   81,     ,     ,30.18,     ,     
KBWG,09/03/18 05:10,     ,    0,     ,  3.0,   43,   39,   87,     ,     ,30.18,     ,     
KBWG,09/03/18 05:15,     ,    0,     ,  3.0,   43,   39,   87,     ,     ,30.18,     ,     
KBWG,09/03/18 05:20,     ,    0,     ,  4.0,   43,   39,   87,     ,     ,30.18,     ,     
KBWG,09/03/18 05:25,     ,    0,     ,  2.5,   43,   39,   87,     ,     ,30.18,     ,     
KBWG,09/03/18 05:30,     ,    0,     ,  1.0,   41,   37,   87,     ,     ,30.18,     ,     
KBWG,09/03/18 05:35,     ,    0,     ,  1.0,   39,   37,   93,     ,     ,30.18,     ,     
KBWG,09/03/18 05:40,     ,    0,     ,  5.0,   39,   37,   93,     ,     ,30.18,     ,     
KBWG,09/03/18 05:45,     ,    0,     ,  3.0,   39,   37,   93,     ,     ,30.18,     ,     
KBWG,09/03/18 05:50,     ,    0,     ,  1.0,   39,   37,   93,     ,     ,30.18,     ,     
KBWG,09/03/18 05:55,     ,    0,     ,  2.5,   41,   37,   87,     ,     ,30.18,     ,     
KBWG,09/03/18 06:00,     ,    0,     ,  2.5,   41,   37,   87,     ,     ,30.19,     ,     
KBWG,09/03/18 06:05,     ,    0,     ,  2.5,   41,   37,   87,     ,     ,30.19,     ,     
KBWG,09/03/18 06:10,     ,    0,     ,  1.0,   41,   37,   87,     ,     ,30.19,     ,     
KBWG,09/03/18 06:15,     ,    0,     , 0.75,   41,   37,   87,     ,     ,30.19,     ,     
KBWG,09/03/18 06:20,     ,    0,     ,  0.5,   41,   37,   87,     ,     ,30.19,     ,     
KBWG,09/03/18 06:25,     ,    0,     ,  0.5,   41,   39,   93,     ,     ,30.19,     ,     
KBWG,09/03/18 06:30,     ,    0,     ,  2.5,   43,   39,   87,     ,     ,30.19,     ,     
KBWG,09/03/18 06:35,     ,    0,     ,  3.0,   43,   39,   87,     ,     ,30.19,     ,     
KBWG,09/03/18 06:40,     ,    0,     ,  2.5,   43,   41,   93,     ,     , 30.2,     ,     
KBWG,09/03/18 06:45,     ,    0,     ,  2.5,   45,   41,   87,     ,     , 30.2,     ,     
KBWG,09/03/18 06:50,     ,    0,     ,  3.0,   45,   43,   93,     ,     , 30.2,     ,     
KBWG,09/03/18 06:55,     ,    0,     ,  3.0,   45,   43,   93,     ,     , 30.2,     ,     
KBWG,09/03/18 07:00,     ,    0,     ,  3.0,   46,   43,   87,     ,     , 30.2,     ,     
KBWG,09/03/18 07:05,     ,    0,     ,  4.0,   46,   43,   87,     ,     , 30.2,     ,     
KBWG,09/03/18 07:10,     ,    0,     ,  4.0,   46,   43,   87,     ,     ,30.21,     ,     
KBWG,09/03/18 07:15,     ,    0,     ,  5.0,   48,   45,   87,     ,     ,30.21,     ,     
KBWG,09/03/18 07:20,     ,    0,     ,  6.0,   50,   45,   82,     ,     ,30.21,     ,     
KBWG,09/03/18 07:25,     ,    0,     ,  6.0,   52,   45,   76,     ,     ,30.21,     ,     
KBWG,09/03/18 07:30,     ,    0,     ,  7.0,   52,   45,   76,     ,     ,30.21,     ,     
KBWG,09/03/18 07:35,     ,    0,     ,  7.0,   52,   45,   76,     ,     ,30.21,     ,     
KBWG,09/03/18 07:40,     ,    0,     ,  7.0,   54,   46,   77,     ,     ,30.21,     ,     
KBWG,09/03/18 07:45,     ,    0,     ,  7.0,   54,   45,   71,     ,     ,30.21,     ,     
KBWG,09/03/18 07:50,  160,    3,     ,  7.0,   54,   46,   77,     ,     ,30.21,     ,     
KBWG,09/03/18 07:55,     ,    0,     ,  7.0,   55,   46,   72,     ,     ,30.21,     ,     
KBWG,09/03/18 08:00,     ,    0,     ,  7.0,   55,   46,   72,     ,     ,30.21,     ,     
KBWG,09/03/18 08:05,  210,    5,     ,  8.0,   57,   46,   67,     ,     ,30.21,     ,     
KBWG,09/03/18 08:10,  230,    7,     ,  9.0,   57,   45,   63,     ,     ,30.21,     ,     
KBWG,09/03/18 08:15,  230,    6,     , 10.0,   59,   45,   59,     ,     ,30.21,     ,     
KBWG,09/03/18 08:20,  210,    7,     , 10.0,   59,   45,   59,     ,     ,30.21,     ,     
KBWG,09/03/18 08:25,  230,    8,     , 10.0,   61,   45,   55,     ,     ,30.21,     ,     
KBWG,09/03/18 08:30,  220,    8,     , 10.0,   61,   45,   55,     ,     ,30.21,     ,     
KBWG,09/03/18 08:35,  210,    9,     , 10.0,   61,   46,   59,     ,     ,30.21,     ,     
KBWG,09/03/18 08:40,  220,    9,     , 10.0,   61,   46,   59,     ,     ,30.21,     ,     
KBWG,09/03/18 08:45,  220,   12,     , 10.0,   61,   46,   59,     ,     ,30.21,     ,     
KBWG,09/03/18 08:50,  200,   10,     , 10.0,   61,   46,   59,     ,     ,30.21,     ,     
KBWG,09/03/18 08:55,  210,    9,     , 10.0,   63,   46,   55,     ,     ,30.21,     ,     
KBWG,09/03/18 09:00,  220,    9,     , 10.0,   63,   46,   55,     ,     ,30.21,     ,     
KBWG,09/03/18 09:05,  230,   10,     , 10.0,   63,   45,   52,     ,     ,30.21,     ,     
KBWG,09/03/18 09:10,  210,    9,     , 10.0,   63,   46,   55,     ,     ,30.21,     ,     
KBWG,09/03/18 09:15,  200,   12,     , 10.0,   64,   46,   52,     ,     , 30.2,     ,     
KBWG,09/03/18 09:20,  210,    9,     , 10.0,   64,   45,   49,     ,     ,30.21,     ,     
KBWG,09/03/18 09:25,  200,   12,     , 10.0,   64,   46,   52,     ,     , 30.2,     ,     
KBWG,09/03/18 09:30,  200,   12,     , 10.0,   64,   46,   52,     ,     , 30.2,     ,     
KBWG,09/03/18 09:35,  210,   12,     , 10.0,   64,   46,   52,     ,     , 30.2,     ,     
KBWG,09/03/18 09:40,  210,   12,     , 10.0,   64,   46,   52,     ,     , 30.2,     ,     
KBWG,09/03/18 09:45,  200,   10,     , 10.0,   64,   46,   52,     ,     , 30.2,     ,     
KBWG,09/03/18 09:50,  230,    9,     , 10.0,   66,   46,   49,     ,     , 30.2,     ,     
KBWG,09/03/18 09:55,  210,    9,     , 10.0,   66,   45,   46,     ,     , 30.2,     ,     
KBWG,09/03/18 10:00,  230,   10,     , 10.0,   66,   45,   46,     ,     , 30.2,     ,     
KBWG,09/03/18 10:05,  210,    9,     , 10.0,   66,   45,   46,     ,     , 30.2,     ,     
KBWG,09/03/18 10:10,  210,    9,     , 10.0,   68,   46,   46,     ,     , 30.2,     ,     
KBWG,09/03/18 10:15,  240,   12,     , 10.0,   68,   45,   43,     ,     ,30.19,     ,     
KBWG,09/03/18 10:20,  230,    9,     , 10.0,   68,   46,   46,     ,     ,30.19,     ,     
KBWG,09/03/18 10:25,  240,   12,     , 10.0,   70,   45,   40,     ,     ,30.19,     ,     
KBWG,09/03/18 10:30,  220,    9,     , 10.0,   70,   45,   40,     ,     ,30.19,     ,     
KBWG,09/03/18 10:35,  210,   13,     , 10.0,   70,   45,   40,     ,     ,30.18,     ,     
KBWG,09/03/18 10:40,  210,    9,     , 10.0,   70,   45,   40,     ,     ,30.18,     ,     
KBWG,09/03/18 10:45,  230,   13,     , 10.0,   70,   45,   40,     ,     ,30.18,     ,     
KBWG,09/03/18 10:50,  220,   13,     , 10.0,   70,   45,   40,     ,     ,30.18,     ,     
KBWG,09/03/18 10:55,  220,    9,     , 10.0,   70,   45,   40,     ,     ,30.18,     ,     
KBWG,09/03/18 11:00,  230,   14,     , 10.0,   70,   45,   40,     ,     ,30.18,     ,     
KBWG,09/03/18 11:05,  240,   13,   20, 10.0,   70,   45,   40,     ,     ,30.18,     ,     
KBWG,09/03/18 11:10,  240,   14,     , 10.0,   70,   45,   40,     ,     ,30.18,     ,     
KBWG,09/03/18 11:15,  230,   14,     , 10.0,   72,   45,   38,     ,     ,30.18,     ,     
KBWG,09/03/18 11:20,  210,    9,     , 10.0,   70,   45,   40,     ,     ,30.17,     ,     
KBWG,09/03/18 11:25,  230,   14,     , 10.0,   72,   45,   38,     ,     ,30.17,     ,     
KBWG,09/03/18 11:30,  240,   12,   16, 10.0,   72,   45,   38,     ,     ,30.17,     ,     
KBWG,09/03/18 11:35,  230,   16,     , 10.0,   72,   43,   35,     ,     ,30.17,     ,     
KBWG,09/03/18 11:40,  220,   12,   21, 10.0,   72,   43,   35,     ,     ,30.16,     ,     
KBWG,09/03/18 11:45,  220,   14,   21, 10.0,   72,   43,   35,     ,     ,30.16,     ,     
KBWG,09/03/18 11:50,  210,   15,   20, 10.0,   72,   43,   35,     ,     ,30.16,     ,     
KBWG,09/03/18 11:55,  200,   12,   22, 10.0,   72,   43,   35,     ,     ,30.15,     ,     
KBWG,09/03/18 12:00,  220,    9,   18, 10.0,   72,   43,   35,     ,     ,30.15,     ,     
KBWG,09/03/18 12:05,  220,   15,   18, 10.0,   72,   43,   35,     ,     ,30.15,     ,     
KBWG,09/03/18 12:10,  230,   13,     , 10.0,   72,   43,   35,     ,     ,30.15,     ,     
KBWG,09/03/18 12:15,  230,   13,     , 10.0,   72,   43,   35,     ,     ,30.15,     ,     
KBWG,09/03/18 12:20,  210,   15,   20, 10.0,   72,   43,   35,     ,     ,30.15,     ,     
KBWG,09/03/18 12:25,  210,   15,   20, 10.0,   73,   43,   33,     ,     ,30.14,     ,     
KBWG,09/03/18 12:30,  230,   14,     , 10.0,   72,   43,   35,     ,     ,30.14,     ,     
KBWG,09/03/18 12:35,  230,   15,     , 10.0,   72,   43,   35,     ,     ,30.13,     ,     
KBWG,09/03/18 12:40,  210,   14,     , 10.0,   73,   43,   33,     ,     ,30.13,     ,     
KBWG,09/03/18 12:45,  230,   12,   20, 10.0,   73,   43,   33,     ,     ,30.13,     ,     
KBWG,09/03/18 12:50,  200,   13,     , 10.0,   73,   43,   33,     ,     ,30.12,     ,     
KBWG,09/03/18 12:55,  200,   15,     , 10.0,   73,   41,   31,     ,     ,30.12,     ,     
KBWG,09/03/18 13:00,  210,   12,   21, 10.0,   73,   43,   33,     ,     ,30.11,     ,     
KBWG,09/03/18 13:05,  200,    9,     , 10.0,   73,   43,   33,     ,     ,30.11,     ,     
KBWG,09/03/18 13:10,  210,   13,     , 10.0,   73,   43,   33,     ,     ,30.11,     ,     
KBWG,09/03/18 13:15,  180,   14,   20, 10.0,   73,   41,   31,     ,     ,30.11,     ,     
KBWG,09/03/18 13:20,  230,   12,   20, 10.0,   73,   39,   29,     ,     ,30.11,     ,     
KBWG,09/03/18 13:25,  220,   13,     , 10.0,   73,   39,   29,     ,     , 30.1,     ,     
KBWG,09/03/18 13:30,  230,   14,     , 10.0,   73,   39,   29,     ,     , 30.1,     ,     
KBWG,09/03/18 13:35,  220,   10,   18, 10.0,   73,   39,   29,     ,     , 30.1,     ,     
KBWG,09/03/18 13:40,  230,   13,   20, 10.0,   73,   39,   29,     ,     , 30.1,     ,     
KBWG,09/03/18 13:45,  210,   10,   20, 10.0,   73,   39,   29,     ,     , 30.1,     ,     
KBWG,09/03/18 13:50,  190,   13,   17, 10.0,   73,   41,   31,     ,     , 30.1,     ,     
KBWG,09/03/18 13:55,  210,   14,   18, 10.0,   73,   39,   29,     ,     , 30.1,     ,     
KBWG,09/03/18 14:00,  200,   13,     , 10.0,   73,   39,   29,     ,     , 30.1,     ,     
KBWG,09/03/18 14:05,  200,   12,     , 10.0,   73,   39,   29,     ,     , 30.1,     ,     
KBWG,09/03/18 14:10,  220,   12,     , 10.0,   75,   39,   27,     ,     , 30.1,     ,     
KBWG,09/03/18 14:15,  230,   12,     , 10.0,   73,   39,   29,     ,     , 30.1,     ,     
KBWG,09/03/18 14:20,  220,   10,   20, 10.0,   73,   39,   29,     ,     , 30.1,     ,     